Flag for Bermuda Weather past 2 weeks in Hamilton, Bermuda

Now
81 °F

Passing clouds.


Feels Like: 85 °F
Forecast: 80 / 85 °F
Wind: 14 mph from Southwest

Location: Bermuda

Current Time: Jul 4, 2015 at 7:29:24 AM

Latest Report: Jul 4, 2015 at 6:55 AM


Visibility: N/A

Pressure: 30.21 "Hg

Humidity: 74%

Dew point: 72 °F

Location of HamiltonLocation

Historic Weather in Hamilton — Graph

°F

Hamilton temperature yesterday

Maximum temperature yesterday: 86 °F (at 2:55 PM)
Minimum temperature yesterday: 45 °F (at 9:55 PM)
Average temperature yesterday: 81 °F

Past Weeks' High & Low Weather Summary

 TemperatureHumidityPressure
High86 °F (Jun 22, 12:55 PM)100% (Jul 3, 9:55 PM)30.30 "Hg (Jul 3, 9:55 PM)
Low45 °F (Jul 3, 9:55 PM)66% (Jun 19, 11:55 AM)30.01 "Hg (Jun 19, 5:55 AM)
Average81 °F79%30.19 "Hg
* Reported Jun 19 5:55 AM — Jul 4 5:55 AM, Hamilton, Weather by CustomWeather, © 2015

Note: Actual official high and low records may vary slightly from our data, if they occured in-between our weather recording intervals... More about our weather records

Advertising

Hamilton weather history for previous 24 hours

 ConditionsComfort  
Time TempWeatherWind HumidityBarometerVisibility
5:55 AM
Sat, Jul 4
79 °FPassing clouds.13 mph79%30.21 "HgN/A
4:55 AM79 °FPassing clouds.13 mph79%30.21 "HgN/A
3:55 AM79 °FPassing clouds.10 mph84%30.21 "HgN/A
2:55 AM81 °FPassing clouds.12 mph79%30.21 "HgN/A
1:55 AM81 °FPassing clouds.12 mph79%30.21 "HgN/A
12:55 AM81 °FPassing clouds.12 mph74%30.21 "HgN/A
11:55 PM
Fri, Jul 3
81 °FPassing clouds.12 mph74%30.24 "HgN/A
10:55 PM81 °FPassing clouds.10 mph79%30.24 "HgN/A
9:55 PM45 °FPassing clouds.12 mph100%30.21 "HgN/A
8:55 PM81 °FPassing clouds.12 mph79%30.21 "HgN/A
7:55 PM82 °FPassing clouds.10 mph74%30.21 "HgN/A
6:55 PM82 °FPassing clouds.10 mph74%30.21 "HgN/A
5:55 PM84 °FScattered clouds.13 mph70%30.21 "HgN/A
4:55 PM84 °FScattered clouds.13 mph66%30.21 "HgN/A
3:55 PM84 °FScattered clouds.14 mph66%30.21 "HgN/A
2:55 PM86 °FScattered clouds.15 mph66%30.21 "HgN/A
1:55 PM84 °FBroken clouds.14 mph70%30.21 "HgN/A
12:55 PM84 °FScattered clouds.14 mph70%30.21 "HgN/A
11:55 AM84 °FScattered clouds.12 mph70%30.21 "HgN/A
10:55 AM84 °FScattered clouds.10 mph70%30.24 "HgN/A
9:55 AM84 °FScattered clouds.10 mph66%30.21 "HgN/A
8:55 AM82 °FScattered clouds.12 mph70%30.21 "HgN/A
7:55 AM81 °FScattered clouds.10 mph74%30.21 "HgN/A
Weather by CustomWeather, © 2015

See weather overviewHow to use our weather pages